Regional Weather Roundup
Issued by NWS

Home | Current Version | Previous Version | Text Only | Print | Product List | Glossary Off
Versions: 1 2 3 4 5 6 7 8 9 10 11 12 13 14 15 16 17 18 19 20 21 22 23 24 25 26 27 28 29 30 31 32 33 34 35 36 37 38 39 40 41 42 43 44 45 46 47 48 49 50

000
ASUS43 KDTX 212301
RWRMI
MICHIGAN HOURLY REGIONAL WEATHER ROUNDUP
NATIONAL WEATHER SERVICE DETROIT/PONTIAC MI
700 PM EDT THU SEP 21 2017

NOTE: "FAIR" INDICATES FEW OR NO CLOUDS BELOW 12,000 FEET WITH NO
SIGNIFICANT WEATHER AND/OR OBSTRUCTION TO VISIBILITY.

MIZ047>049-052>055-059>063-066>070-074>076-081>083-220000-
SOUTHEAST LOWER MICHIGAN

CITY           SKY/WX    TMP DP  RH WIND       PRES   REMARKS
ADRIAN         CLOUDY    87  68  52 W5        30.05R HX  90
ALMA           CLOUDY    81  61  51 S12G20    30.06R
ANN ARBOR      PTCLDY    84  74  71 E3        30.05R HX  91
BAD AXE        CLOUDY    82  69  64 SE5       30.04R
CARO           CLOUDY    81  65  58 SW6       30.04R
DETROIT CITY   CLOUDY    81  72  74 E7        30.05R
DETROIT        CLOUDY    80  71  74 S6        30.06R
FLINT          CLOUDY    77  57  50 W12       30.05F
GROSSE ILE     CLOUDY    78  70  76 E5        30.04R
HILLSDALE      CLOUDY    79  72  78 CALM      30.07R
HOWELL         CLOUDY    73  66  80 NE3       30.07F

CITY           SKY/WX    TMP DP  RH WIND       PRES   REMARKS
JACKSON        MOCLDY    79  63  57 N14G25    30.09R
LAMBERTVILLE   CLEAR     82  72  71 E3        30.04R
LANSING        CLOUDY    71  65  81 E6        30.07F
LAPEER         FAIR      82  71  68 SW3       30.06R
MASON          HVY RAIN  72  66  80 NE15      30.11R
MONROE         CLEAR     79  69  73 SE5       30.04S
MT. CLEMENS    MOCLDY    77  71  79 SE8       30.05R
PONTIAC        CLOUDY    81  63  54 NW10      30.06R
PORT HOPE        N/A     79  68  69 S9        30.02R
PORT HURON     CLEAR     77  72  83 S3        30.06R
TRI CITIES     CLOUDY    80  65  59 S13       30.05R
MIDLAND        FAIR      85  65  50 S10G21    30.03R
TROY           CLOUDY    85  71  63 E6        30.07R
SAGINAW HB     CLOUDY    79  63  57 SW10      30.03F
$$
MIZ043>046-050>051-056>058-064>065-071>073-077>080-220000-
SOUTHWEST LOWER MICHIGAN

CITY           SKY/WX    TMP DP  RH WIND       PRES   REMARKS
BATTLE CREEK   CLOUDY    75  70  84 S7        30.06S
BENTON HARBOR  CLEAR     84  71  65 CALM      30.00F
BIG RAPIDS     CLEAR     83  64  52 W3        30.04R
COLDWATER      MOCLDY    84  65  52 N8G17     30.06R
FREMONT        FAIR      83  67  58 CALM      30.02R
HOLLAND        CLEAR     87  71  58 CALM      30.02R HX  93
GRAND RAPIDS   MOCLDY    85  66  53 SE14      30.04R
IONIA          LGT RAIN  78  61  57 E10       30.07R
KALAMAZOO      MOCLDY    77  68  73 CALM      30.04R
LUDINGTON      CLOUDY    73  68  86 CALM      30.01R
MARSHALL       CLOUDY    78  65  65 CALM      30.06R
MOUNT PLEASANT CLOUDY    89  63  41 SW5       30.03R
MUSKEGON       MOCLDY    85  67  54 S3        30.02R
SOUTH HAVEN    CLEAR     82  71  67 CALM      30.01R
$$
MIZ016>042-220000-
NORTHERN LOWER MICHIGAN

CITY           SKY/WX    TMP DP  RH WIND       PRES   REMARKS
ALPENA         CLOUDY    74  70  87 E3        30.03S
BEAVER ISLAND  CLEAR     75  67  76 SE3       30.02R
BELLAIRE       CLEAR     79  68  69 NE3       30.01R
CADILLAC       CLEAR     84  63  49 W5        30.05R
CHARLEVOIX     CLEAR     76  66  70 CALM      30.05R
FRANKFORT      CLOUDY    76  68  75 CALM      30.01S
GAYLORD        MOCLDY    78  69  73 NE6       30.05R
GRAYLING       CLEAR     82  67  60 W6        30.04R
HARBOR SPRINGS PTCLDY    75  70  83 E3        30.02R
HOUGHTON LAKE  CLEAR     83  68  60 SW5       30.04R
MANISTEE       PTCLDY    77  69  76 W3        30.01R
OSCODA         CLEAR     78  67  68 S7        30.02R
PELLSTON       PTCLDY    76  69  79 E3        30.03S
ROGERS CITY    CLEAR     69  66  88 CALM      30.05R FOG
TRAVERSE CITY  MOCLDY    74  67  78 NE8       30.01R
$$
MIZ007>008-015-220000-
EASTERN UPPER MICHIGAN

CITY           SKY/WX    TMP DP  RH WIND       PRES   REMARKS
KINROSS        MOCLDY    74  69  85 E8        30.04S
MACKINAC ISLAN CLEAR     73  67  83 SE10      30.03S
NEWBERRY       MOCLDY    72  71  97 E7        30.02R
S. S. MARIE    CLOUDY    75  69  81 SE3       30.03S
MUNISING         N/A     60  60 100 NE5       30.01F
$$
MIZ004>006-011>014-085-220000-
CENTRAL UPPER MICHIGAN

CITY           SKY/WX    TMP DP  RH WIND       PRES   REMARKS
MANISTIQUE     CLEAR     70  64  81 CALM      30.00F
ESCANABA       CLEAR     72  67  84 S5        30.00S
MENOMINEE      CLEAR     72  67  84 E3        30.00S
SAWYER-GWINN   CLEAR     66  55  68 NE6       30.02F
$$
MIZ001>003-009>011-084-220000-
WESTERN UPPER MICHIGAN

CITY           SKY/WX    TMP DP  RH WIND       PRES   REMARKS
IRON MOUNTAIN  CLOUDY    76  66  71 S9        29.99R
HOUGHTON       CLEAR     61  52  72 E9        30.00F
COPPER HARBOR    N/A     64  53  67 S8        30.00F
IRONWOOD       CLEAR     78  65  63 SE6       29.93F
$$

ABBREVIATIONS USED IN REMARKS
   TC - TEMPERATURE IN CELSIUS
  WCI - WIND CHILL INDEX
   HX - HEAT INDEX
  VSB - VISIBILITY





USA.gov is the U.S. government's official web portal to all federal, state and local government web resources and services.